Terminal Aerodrome Forecast
Issued by NWS Milwaukee/Sullivan, WI

Home | Current Version | Previous Version | Text Only | Print | Product List | Glossary On
Versions: 1 2 3 4 5 6 7 8 9 10 11 12 13 14 15 16 17 18 19 20 21 22 23 24 25 26 27 28 29 30 31 32 33 34 35 36 37 38 39 40 41 42 43 44 45 46 47 48 49 50
000
FTUS43 KMKX 270536
TAFMKE
TAF
KMKE 270536Z 2706/2812 00000KT 4SM -SN BR OVC018
     FM270800 04005KT 6SM BR OVC015
     FM271200 01005KT P6SM OVC025
     FM271700 05007KT P6SM BKN040
     FM272000 05006KT P6SM SCT060
     FM280800 23004KT P6SM SCT250=

USA.gov is the U.S. government's official web portal to all federal, state and local government web resources and services.